Regional Weather Roundup
Issued by NWS

Home | Current Version | Previous Version | Graphics & Text | Print | Product List | Glossary On
Versions: 1 2 3 4 5 6 7 8 9 10 11 12 13 14 15 16 17 18 19 20 21 22 23 24 25 26 27 28 29 30 31 32 33 34 35 36 37 38 39 40 41 42 43 44 45 46 47 48 49 50
000
ASUS45 KBOU 200307
RWRCO

WEATHER ROUNDUP FOR COLORADO
NATIONAL WEATHER SERVICE DENVER/BOULDER CO
900 PM MDT SUN OCT 19 2014

NOTE: "FAIR" INDICATES FEW OR NO CLOUDS BELOW 12000 FEET WITH NO
SIGNIFICANT WEATHER AND/OR OBSTRUCTIONS TO VISIBILITY.

COZ001>005-013-030-031-200400-
...NORTHWEST COLORADO...

CITY           SKY/WX    TMP DP  RH WIND       PRES   REMARKS
CRAIG          CLEAR     45  33  63 CALM      30.15S
HAYDEN         CLEAR     48  28  46 SW8       30.16R
MEEKER         CLEAR     50  36  58 CALM      30.16R
MOUNT WERNER   NOT AVBL
STEAMBOAT SPGS CLEAR     50  29  44 E3        30.18R
WALDEN         CLEAR     45  28  53 CALM      30.25R
$$

COZ006>008-011-200400-
...WEST CENTRAL VALLEYS...

CITY           SKY/WX    TMP DP  RH WIND       PRES   REMARKS
GRAND JUNCTION MOCLDY    52  32  46 NE5       30.06R
MONTROSE       MOCLDY    55  41  59 S8        30.15R
EAGLE          PTCLDY    55  37  50 NW3       30.19R
RIFLE          PTCLDY    54  36  50 CALM      30.11R
DELTA          PTCLDY    60  38  43 NE5       30.09R
NUCLA          MOCLDY    61  37  41 S7        30.19R
$$

COZ017>023-064>068-200400-
...SOUTHWEST COLORADO...

CITY           SKY/WX    TMP DP  RH WIND       PRES   REMARKS
DURANGO        CLOUDY    49  47  93 N12       30.25F
CORTEZ         PTCLDY    57  43  59 CALM      30.20S
PAGOSA SPRINGS CLOUDY    48  43  81 CALM      30.28R
TELLURIDE      MOCLDY    48  37  64 NE5       30.35R
WOLF CREEK PAS CLOUDY    34  32  93 S7        30.46R WCI  28
$$

COZ009-010-012-014-032>034-037-058>063-200400-
...CENTRAL COLORADO...

CITY           SKY/WX    TMP DP  RH WIND       PRES   REMARKS
ASPEN          PTCLDY   N/A N/A N/A SW8       30.24S
BUENA VISTA    CLOUDY    51  39  64 NW8       30.28S
COPPER MTN     PTCLDY    41  30  65 SE9G20    30.47S
BERTHOUD PASS  FAIR      32  30  93 SE16G23   30.52S WCI  21
COTTONWOOD PAS CLOUDY    48  34  57 W7        30.38S
GUNNISON       CLOUDY    48  30  49 NW3       30.27R
KREMMLING      CLEAR     45  28  53 CALM        N/A
LEADVILLE      CLOUDY    43  32  65 E9        30.36S
MONARCH PASS   PTCLDY    36  30  80 E14       30.57R
SALIDA         PTCLDY    50  36  58 SW3       30.34R
SUNLIGHT       PTCLDY    45  32  61 CALM      30.41S
WILKERSON PASS NOT AVBL
$$

COZ069>075-200400-
...SAN LUIS VALLEY/SANGRE DE CRISTO MOUNTAINS...

CITY           SKY/WX    TMP DP  RH WIND       PRES   REMARKS
ALAMOSA        PTCLDY    49  36  61 S8        30.25R
LA VETA PASS   CLOUDY    43  32  65 NE8       30.40R
SAGUACHE       CLOUDY    54  37  54 NW9G16    30.29R
$$

COZ035-036-038>040-200400-
...NORTHERN COLORADO FRONT RANGE...

CITY           SKY/WX    TMP DP  RH WIND       PRES   REMARKS
DENVER INTL AP PTCLDY    51  35  54 SE9       30.15R
DMNS CITY PARK   N/A     57  36  45 S3        30.15R
AURORA         PTCLDY    54  35  48 SE10      30.17R
FRONT RANGE AP CLEAR     54  37  54 SE9       30.16S
ERIE MUNI ARPT CLEAR     52  36  53 CALM      30.14R
BOULDER MUN AP CLEAR     59  32  36 SW6       30.14S
CENTENNIAL     PTCLDY    53  35  50 S7        30.17S
BROOMFIELD     PTCLDY    63  32  31 CALM      30.16S
FORT COLLINS   CLEAR     57  36  44 SE3       30.15R
LONGMONT       CLEAR     53  38  57 W3        30.15R
$$

COZ041-046-047-076>085-087-088-200400-
...PIKES PEAK/PALMER DIVIDE AND SOUTHERN FOOTHILLS...

CITY           SKY/WX    TMP DP  RH WIND       PRES   REMARKS
COLO. SPRINGS  MOCLDY    52  34  50 NW5       30.21R
A. F. ACADEMY  CLEAR     47  33  59 N10       30.22R
ELLICOTT       NOT AVBL
FALCON         CLEAR     51  32  49 N5        30.24S
FORT CARSON    MOCLDY    55  35  47 NW7       30.18R
LIMON          CLEAR     48  37  65 CALM      30.16R
MONUMENT HILL  PTCLDY    45  32  61 S8        30.23S
TRINIDAD       CLEAR     56  40  55 W13       30.17R
$$

COZ042>045-048>051-090-091-200400-
...NORTHEAST COLORADO...

CITY           SKY/WX    TMP DP  RH WIND       PRES   REMARKS
GREELEY ARPT   CLEAR     52  36  54 E5        30.13R
AKRON          CLEAR     54  37  52 E7        30.12R
BURLINGTON     CLEAR     53  40  61 E8        30.10S
WRAY           CLEAR     56  37  48 CALM      30.09R
STERLING       CLEAR     54  41  62 CALM      30.09S
HOLYOKE        CLEAR     46  37  71 CALM      30.10R
FORT MORGAN    CLEAR     53  37  54 NE7       30.13R
$$

COZ086-089-092>099-200400-
...SOUTHEAST COLORADO...

CITY           SKY/WX    TMP DP  RH WIND       PRES   REMARKS
PUEBLO         MOCLDY    60  35  39 E7        30.10S
LA JUNTA       CLEAR     60  42  51 E6        30.09R
LAMAR          PTCLDY    53  44  71 E3        30.05R
SPRINGFIELD      N/A     55  41  59 NE3       30.09R
$$


USA.gov is the U.S. government's official web portal to all federal, state and local government web resources and services.